Zurück zum Katalog

USA 197

AktivMilitärGEO
NORAD 32287·PAYLOAD·🇺🇸 United States

Gestartet Nov 11, 2007 von Cape Canaveral Space Force Station

Loading…

TLE

AktuellSource: Mike McCants

Epoche: Sep 15, 2026, 19:24 UTC

1 32287U 07054A   26258.80877724  .00000000  00000-0  00000-0 0    07
2 32287  11.0385  47.0436 0005207 200.7384 159.2525  1.00202077  5300

Verfolge USA 197 in Echtzeit mit AllMySat

Download on the App Store